| time (UTC) | temp F | wind direction | speed knots | gust knots | rain 1hr in | rain 24hr in | rain mn in | humidity % | barometer mb |
| 20260504215002 | 63 | 3 | 6.1 | 12.2 | 0.00 | 0.00 | 0.02 | 41 | 1010.0 |
| 20260504214502 | 62 | 353 | 9.6 | 14.8 | 0.00 | 0.00 | 0.02 | 41 | 1010.3 |
| 20260504213502 | 60 | 357 | 12.2 | 14.8 | 0.00 | 0.00 | 0.02 | 42 | 1010.4 |
| 20260504213002 | 60 | 11 | 9.6 | 10.4 | 0.00 | 0.00 | 0.02 | 45 | 1010.5 |
| 20260504212502 | 60 | 354 | 7.0 | 7.8 | 0.00 | 0.00 | 0.02 | 48 | 1010.3 |
| 20260504212002 | 60 | 14 | 7.0 | 8.7 | 0.00 | 0.00 | 0.02 | 50 | 1010.5 |
| 20260504210503 | 57 | 38 | 1.7 | 3.5 | 0.00 | 0.00 | 0.02 | 50 | 1010.3 |
| 20260504210003 | 56 | 286 | 0.9 | 1.7 | 0.00 | 0.00 | 0.02 | 59 | 1010.5 |
| 20260504205505 | 56 | 13 | 2.6 | 4.3 | 0.02 | 0.00 | 0.02 | 56 | 1010.5 |
| 20260504205002 | 55 | 68 | 1.7 | 5.2 | 0.05 | 0.00 | 0.02 | 59 | 1010.8 |
| 20260504204502 | 56 | 2 | 4.3 | 7.8 | 0.00 | 0.00 | 0.01 | 54 | 1011.3 |
| 20260504204003 | 58 | 336 | 7.0 | 13.0 | 0.00 | 0.00 | 0.01 | 50 | 1011.3 |
| 20260504203002 | 58 | 355 | 2.6 | 5.2 | 0.00 | 0.00 | 0.01 | 45 | 1011.5 |
| 20260504202502 | 58 | 7 | 2.6 | 4.3 | 0.00 | 0.00 | 0.01 | 47 | 1011.4 |
| 20260504201502 | 58 | 10 | 3.5 | 7.8 | 0.00 | 0.00 | 0.01 | 46 | 1011.4 |
| 20260504201003 | 57 | 99 | 1.7 | 2.6 | 0.00 | 0.00 | 0.01 | 52 | 1011.1 |
| 20260504200502 | 56 | 46 | 1.7 | 3.5 | 0.00 | 0.00 | 0.01 | 53 | 1011.1 |
| 20260504195502 | 56 | 27 | 3.5 | 5.2 | 0.05 | 0.00 | 0.01 | 56 | 1010.9 |
| 20260504195002 | 56 | 48 | 2.6 | 9.6 | 0.07 | 0.00 | 0.01 | 59 | 1011.1 |
| 20260504194002 | 61 | 5 | 11.3 | 17.4 | 0.00 | 0.00 | 0.00 | 35 | 1010.5 |
| 20260504193502 | 62 | 7 | 10.4 | 20.0 | 0.00 | 0.00 | 0.00 | 32 | 1010.6 |
| 20260504193002 | 62 | 9 | 10.4 | 15.6 | 0.00 | 0.00 | 0.00 | 31 | 1010.6 |
| 20260504192502 | 66 | 355 | 15.6 | 18.2 | 0.00 | 0.00 | 0.00 | 27 | 1010.5 |
| 20260504192003 | 67 | 354 | 4.3 | 4.3 | 0.00 | 0.00 | 0.00 | 24 | 1009.9 |
| 20260504191502 | 67 | 36 | 3.5 | 3.5 | 0.00 | 0.00 | 0.00 | 25 | 1010.3 |
| 20260504191002 | 67 | 12 | 4.3 | 7.0 | 0.00 | 0.00 | 0.00 | 24 | 1009.8 |
| 20260504190003 | 67 | 20 | 7.8 | 10.4 | 0.00 | 0.00 | 0.00 | 23 | 1009.7 |
| 20260504185503 | 68 | 345 | 5.2 | 11.3 | 0.00 | 0.00 | 0.00 | 25 | 1009.6 |
| 20260504185002 | 68 | 315 | 3.5 | 9.6 | 0.00 | 0.00 | 0.00 | 22 | 1009.2 |
| 20260504184502 | 68 | 226 | 2.6 | 9.6 | 0.00 | 0.00 | 0.00 | 22 | 1009.1 |
| 20260504184002 | 68 | 212 | 6.1 | 9.6 | 0.00 | 0.00 | 0.00 | 22 | 1009.1 |
| 20260504183502 | 69 | 285 | 4.3 | 4.3 | 0.00 | 0.00 | 0.00 | 21 | 1009.0 |
| 20260504182502 | 69 | 232 | 5.2 | 9.6 | 0.00 | 0.00 | 0.00 | 21 | 1009.3 |
| 20260504181503 | 68 | 212 | 5.2 | 7.0 | 0.00 | 0.00 | 0.00 | 23 | 1009.2 |
| 20260504180502 | 70 | 210 | 4.3 | 6.1 | 0.00 | 0.00 | 0.00 | 22 | 1009.3 |
| 20260504180002 | 70 | 186 | 1.7 | 7.0 | 0.00 | 0.00 | 0.00 | 22 | 1009.3 |
| 20260504175502 | 70 | 68 | 1.7 | 5.2 | 0.00 | 0.00 | 0.00 | 22 | 1009.2 |
| 20260504175002 | 71 | 242 | 4.3 | 7.8 | 0.00 | 0.00 | 0.00 | 21 | 1009.3 |
| 20260504174503 | 72 | 307 | 2.6 | 5.2 | 0.00 | 0.00 | 0.00 | 20 | 1009.1 |
| 20260504174002 | 72 | 320 | 2.6 | 4.3 | 0.00 | 0.00 | 0.00 | 19 | 1009.2 |
| 20260504173502 | 72 | 348 | 4.3 | 5.2 | 0.00 | 0.00 | 0.00 | 19 | 1009.8 |
| 20260504173002 | 72 | 356 | 7.0 | 9.6 | 0.00 | 0.00 | 0.00 | 20 | 1009.4 |
| 20260504172502 | 72 | 347 | 5.2 | 9.6 | 0.00 | 0.00 | 0.00 | 19 | 1009.4 |
| 20260504172002 | 72 | 327 | 5.2 | 9.6 | 0.00 | 0.00 | 0.00 | 19 | 1009.7 |
| 20260504171503 | 72 | 312 | 5.2 | 9.6 | 0.00 | 0.00 | 0.00 | 19 | 1009.6 |
| 20260504171002 | 72 | 330 | 3.5 | 8.7 | 0.00 | 0.00 | 0.00 | 18 | 1009.6 |
| 20260504170502 | 72 | 325 | 8.7 | 9.6 | 0.00 | 0.00 | 0.00 | 19 | 1009.4 |
| 20260504151002 | 69 | 0 | 3.5 | 7.0 | 0.00 | 0.00 | 0.00 | 23 | 1009.8 |
| 20260504150503 | 68 | 226 | 1.7 | 6.1 | 0.00 | 0.00 | 0.00 | 23 | 1009.8 |
| 20260504141002 | 52 | 99 | 2.6 | 5.2 | 0.00 | 0.00 | 0.00 | 45 | 1010.4 |
| 20260504140502 | 52 | 98 | 1.7 | 4.3 | 0.00 | 0.00 | 0.00 | 46 | 1010.4 |
| 20260504130502 | 48 | 55 | 0.0 | 1.7 | 0.00 | 0.00 | 0.00 | 50 | 1010.4 |
| 20260504110502 | 43 | 99 | 0.9 | 1.7 | 0.00 | 0.00 | 0.00 | 54 | 1010.6 |
| 20260504100503 | 51 | 218 | 0.0 | 0.0 | 0.00 | 0.00 | 0.00 | 39 | 1010.8 |
| 20260504082002 | 49 | 5 | 1.7 | 2.6 | 0.00 | 0.00 | 0.00 | 49 | 1011.5 |
| 20260504081503 | 49 | 9 | 1.7 | 1.7 | 0.00 | 0.00 | 0.00 | 49 | 1011.7 |
| 20260504081002 | 50 | 3 | 1.7 | 2.6 | 0.00 | 0.00 | 0.00 | 48 | 1011.9 |
| 20260504080503 | 50 | 356 | 1.7 | 1.7 | 0.00 | 0.00 | 0.00 | 45 | 1011.9 |
| 20260504050503 | 56 | 9 | 3.5 | 7.0 | 0.00 | 0.00 | 0.00 | 33 | 1012.7 |
| 20260504050002 | 56 | 9 | 5.2 | 6.1 | 0.00 | 0.00 | 0.00 | 34 | 1012.7 |
| 20260504045502 | 56 | 349 | 6.1 | 8.7 | 0.00 | 0.00 | 0.00 | 34 | 1013.1 |
| 20260504045002 | 56 | 355 | 4.3 | 7.8 | 0.00 | 0.00 | 0.00 | 33 | 1012.8 |
| 20260504044503 | 56 | 353 | 5.2 | 7.0 | 0.00 | 0.00 | 0.00 | 33 | 1012.8 |
| 20260504044002 | 57 | 357 | 5.2 | 7.0 | 0.00 | 0.00 | 0.00 | 33 | 1013.0 |
| 20260504043502 | 57 | 355 | 6.1 | 8.7 | 0.00 | 0.00 | 0.00 | 32 | 1012.7 |
| 20260504043002 | 57 | 6 | 5.2 | 7.0 | 0.00 | 0.00 | 0.00 | 32 | 1013.1 |
| 20260504042502 | 59 | 354 | 6.1 | 7.0 | 0.00 | 0.00 | 0.00 | 31 | 1013.0 |
| 20260504042003 | 58 | 351 | 7.8 | 10.4 | 0.00 | 0.00 | 0.00 | 30 | 1013.0 |
| 20260504040503 | 60 | 9 | 5.2 | 8.7 | 0.00 | 0.00 | 0.00 | 28 | 1013.0 |
| 20260504040003 | 60 | 353 | 5.2 | 7.8 | 0.00 | 0.00 | 0.00 | 27 | 1013.1 |
| 20260504035502 | 60 | 4 | 6.1 | 7.8 | 0.00 | 0.00 | 0.00 | 26 | 1013.1 |
| 20260504035002 | 61 | 1 | 4.3 | 9.6 | 0.00 | 0.00 | 0.00 | 25 | 1012.8 |
| 20260504034002 | 62 | 349 | 6.1 | 7.0 | 0.00 | 0.00 | 0.00 | 22 | 1013.0 |
| 20260504033502 | 62 | 7 | 4.3 | 7.8 | 0.00 | 0.00 | 0.00 | 21 | 1012.8 |
| 20260504033003 | 63 | 358 | 4.3 | 9.6 | 0.00 | 0.00 | 0.00 | 21 | 1012.7 |
| 20260504032503 | 63 | 6 | 4.3 | 7.0 | 0.00 | 0.00 | 0.00 | 21 | 1012.6 |
| 20260504032002 | 62 | 350 | 6.1 | 7.8 | 0.00 | 0.00 | 0.00 | 21 | 1012.7 |
| 20260504031502 | 61 | 3 | 6.1 | 6.1 | 0.00 | 0.00 | 0.00 | 22 | 1012.5 |
| 20260504031002 | 61 | 5 | 3.5 | 4.3 | 0.00 | 0.00 | 0.00 | 24 | 1012.4 |
| 20260504030503 | 62 | 346 | 3.5 | 7.0 | 0.00 | 0.00 | 0.00 | 22 | 1012.2 |
| 20260504030002 | 62 | 7 | 7.0 | 7.0 | 0.00 | 0.00 | 0.00 | 24 | 1012.4 |
| 20260504025502 | 62 | 20 | 3.5 | 4.3 | 0.00 | 0.00 | 0.00 | 22 | 1012.1 |
| 20260504025002 | 62 | 357 | 1.7 | 1.7 | 0.00 | 0.00 | 0.00 | 23 | 1011.8 |
| 20260504024503 | 64 | 326 | 0.0 | 1.7 | 0.00 | 0.00 | 0.00 | 22 | 1011.8 |
| 20260504024003 | 63 | 181 | 0.0 | 1.7 | 0.00 | 0.00 | 0.00 | 22 | 1011.9 |
| 20260504023502 | 62 | 227 | 1.7 | 1.7 | 0.00 | 0.00 | 0.00 | 24 | 1011.9 |
| 20260504023003 | 63 | 283 | 0.0 | 0.9 | 0.00 | 0.00 | 0.00 | 23 | 1011.8 |
| 20260504022502 | 63 | 193 | 0.9 | 0.9 | 0.00 | 0.00 | 0.00 | 23 | 1011.8 |
| 20260504022002 | 64 | 233 | 0.0 | 1.7 | 0.00 | 0.00 | 0.00 | 22 | 1011.9 |
| 20260504021502 | 64 | 220 | 1.7 | 1.7 | 0.00 | 0.00 | 0.00 | 21 | 1011.9 |
| 20260504021002 | 64 | 248 | 0.9 | 1.7 | 0.00 | 0.00 | 0.00 | 22 | 1011.5 |
| 20260504020002 | 64 | 315 | 0.0 | 1.7 | 0.00 | 0.00 | 0.00 | 23 | 1011.5 |
| 20260504015502 | 64 | 229 | 0.0 | 1.7 | 0.00 | 0.00 | 0.00 | 23 | 1011.5 |
| 20260504015002 | 64 | 63 | 0.9 | 0.9 | 0.00 | 0.00 | 0.00 | 23 | 1011.7 |
| 20260504014502 | 64 | 13 | 0.0 | 1.7 | 0.00 | 0.00 | 0.00 | 24 | 1011.7 |
| 20260504013502 | 66 | 31 | 0.0 | 0.9 | 0.00 | 0.00 | 0.00 | 23 | 1011.7 |
| 20260504012502 | 67 | 202 | 0.0 | 2.6 | 0.00 | 0.00 | 0.00 | 22 | 1011.4 |
| 20260504011503 | 68 | 202 | 0.9 | 1.7 | 0.00 | 0.00 | 0.00 | 21 | 1011.5 |
| 20260504011002 | 68 | 202 | 0.0 | 1.7 | 0.00 | 0.00 | 0.00 | 23 | 1011.5 |
| 20260504010502 | 68 | 147 | 0.0 | 0.9 | 0.00 | 0.00 | 0.00 | 20 | 1011.8 |
| 20260504010003 | 67 | 217 | 0.0 | 0.0 | 0.00 | 0.00 | 0.00 | 21 | 1011.7 |
| 20260504005501 | 68 | 68 | 0.0 | 0.9 | 0.00 | 0.00 | 0.00 | 21 | 1011.7 |
| 20260504005002 | 68 | 43 | 0.0 | 0.9 | 0.00 | 0.00 | 0.00 | 21 | 1011.7 |
| 20260504004503 | 68 | 37 | 0.0 | 0.9 | 0.00 | 0.00 | 0.00 | 20 | 1011.9 |
| 20260504004002 | 68 | 43 | 0.0 | 0.9 | 0.00 | 0.00 | 0.00 | 21 | 1011.9 |
| 20260504003502 | 68 | 193 | 0.0 | 1.7 | 0.00 | 0.00 | 0.00 | 20 | 1011.9 |
| 20260504003003 | 68 | 216 | 1.7 | 3.5 | 0.00 | 0.00 | 0.00 | 20 | 1011.8 |
| 20260504002502 | 69 | 97 | 0.9 | 0.9 | 0.00 | 0.00 | 0.00 | 21 | 1011.9 |
| 20260504002002 | 70 | 345 | 0.0 | 1.7 | 0.00 | 0.00 | 0.00 | 19 | 1011.9 |
| 20260504001502 | 70 | 86 | 1.7 | 1.7 | 0.00 | 0.00 | 0.00 | 19 | 1012.0 |
| 20260504001002 | 70 | 34 | 0.0 | 1.7 | 0.00 | 0.00 | 0.00 | 19 | 1012.0 |
| 20260504000002 | 70 | 66 | 0.0 | 1.7 | 0.00 | 0.00 | 0.00 | 17 | 1011.9 |
| 20260503234502 | 70 | 4 | 3.5 | 4.3 | 0.00 | 0.00 | 0.00 | 17 | 1012.0 |
| 20260503234002 | 70 | 347 | 3.5 | 5.2 | 0.00 | 0.00 | 0.00 | 17 | 1012.0 |
| 20260503233502 | 70 | 348 | 3.5 | 6.1 | 0.00 | 0.00 | 0.00 | 17 | 1012.0 |
| 20260503233003 | 70 | 9 | 3.5 | 5.2 | 0.00 | 0.00 | 0.00 | 17 | 1012.2 |
| 20260503232002 | 70 | 346 | 6.1 | 9.6 | 0.00 | 0.00 | 0.00 | 16 | 1012.1 |
| 20260503231502 | 71 | 355 | 7.0 | 10.4 | 0.00 | 0.00 | 0.00 | 16 | 1012.1 |
| 20260503231003 | 71 | 320 | 4.3 | 7.8 | 0.00 | 0.00 | 0.00 | 15 | 1012.0 |
| 20260503230502 | 72 | 11 | 1.7 | 3.5 | 0.00 | 0.00 | 0.00 | 15 | 1012.0 |
| 20260503230002 | 72 | 230 | 0.0 | 1.7 | 0.00 | 0.00 | 0.00 | 15 | 1012.0 |
| 20260503225502 | 72 | 349 | 3.5 | 6.1 | 0.00 | 0.00 | 0.00 | 14 | 1011.8 |
| 20260503225003 | 72 | 34 | 0.0 | 1.7 | 0.00 | 0.00 | 0.00 | 16 | 1011.7 |
| 20260503224502 | 72 | 19 | 1.7 | 5.2 | 0.00 | 0.00 | 0.00 | 16 | 1011.9 |
| 20260503224002 | 72 | 5 | 3.5 | 6.1 | 0.00 | 0.00 | 0.00 | 16 | 1012.1 |
| 20260503223502 | 72 | 3 | 2.6 | 5.2 | 0.00 | 0.00 | 0.00 | 16 | 1011.7 |
| 20260503222502 | 72 | 8 | 2.6 | 7.0 | 0.00 | 0.00 | 0.00 | 16 | 1012.0 |
| 20260503221003 | 72 | 346 | 6.1 | 7.0 | 0.00 | 0.00 | 0.00 | 16 | 1012.0 |
| 20260503220502 | 72 | 6 | 1.7 | 2.6 | 0.00 | 0.00 | 0.00 | 17 | 1012.1 |
| 20260503220002 | 72 | 347 | 4.3 | 7.0 | 0.00 | 0.00 | 0.00 | 16 | 1012.5 |
| 20260503215502 | 72 | 352 | 3.5 | 7.8 | 0.00 | 0.00 | 0.00 | 17 | 1012.6 |